Weather in Šabac

Serbia     44°45′09″N   19°41′18″E
temp.,
°C
wind,
m/s
gust,
m/s
humid.,
%
clouds,
%
prec.,
mm/h
press.,
hPa
HPBL,
m
26 october, tue
tue2623:00+8ese513610 0.0 1025350
02:00+7ese49660 0.0 1024254
05:00+5se37740 0.0 1024162
08:00+5ese36760 0.0 1023192
11:00+11ese34562 0.0 1023549
14:00+14se23435 0.0 10221021
17:00+13wnw11515 0.0 102224
20:00+9nw116843 0.0 102414
27 october, wed
wed2723:00+7wnw227693 0.0 102531
02:00+6w3483100 0.0 102668
05:00+5w3485100 0.0 102761
08:00+5w2385100 0.0 102887
11:00+10wnw336362 0.0 1029514
14:00+13n225019 0.0 1027879
17:00+12ene115448 0.0 102711
20:00+9ese12620 0.0 102710
28 october, thu
thu2823:00+7se11686 0.0 102810
02:00+6se1274100 0.0 102710
05:00+5sse118194 0.0 102710
08:00+5ese11805 0.0 102814
11:00+11ese23545 0.0 1027487
14:00+15e34415 0.0 1025852
17:00+13e34495 0.0 102455
20:00+9e33585 0.0 102433
29 october, fri
fri2923:00+8ese22685 0.0 102422
02:00+7se22745 0.0 102424
05:00+6se22791 0.0 102315
08:00+6se22802 0.0 102328
11:00+12ese34545 0.0 1023451
14:00+17se45395 0.0 1022930
17:00+15ese46485 0.0 1021121
20:00+10ese47625 0.0 1022136
30 october, sat
sat3023:00+9se34700 0.0 102361
02:00+8se23750 0.0 102332
05:00+7se33780 0.0 102336
08:00+7se23760 0.0 102452
11:00+14se34470 0.0 1024380
14:00+19se34340 0.0 1023717
17:00+16ese35450 0.0 102278
20:00+11ese35600 0.0 102379